Algona, IA

8:20 PM CDT on June 27, 2017 (GMT -0500)
Algona Municipal

Weather History for KAXA - February, 2015

Change the Weather History Date:

Monday, February 16, 2015

  Actual Average Record
Temperature  
Mean Temperature 18 °F -  
Max Temperature 26 °F 30 °F 50 °F (2011)
Min Temperature 10 °F 16 °F -5 °F (2007)
Degree Days  
Heating Degree Days 47    
Moisture  
Dew Point 6 °F    
Average Humidity 73    
Maximum Humidity 100    
Minimum Humidity 38    
Precipitation  
Precipitation 0.00 in - - ()
Sea Level Pressure  
Sea Level Pressure 30.11 in    
Wind  
Wind Speed 12 mph (West)    
Max Wind Speed 16 mph    
Max Gust Speed 25 mph    
Visibility 10 miles    
Events Snow    
Averages and records for this station are not official NWS values.
T = Trace of Precipitation, MM = Missing Value Source: NWS Daily Summary

Daily Weather History Graph

Daily Weather History Graph

Search for Another Location

Airport or City:

Trip Planner

Search our weather history database for the weather conditions in past years. The results will help you decide how hot, cold, wet, or windy it might be!

Date:

Astronomy

Feb. 16, 2015 Rise Set
Actual Time 7:13 AM CST 5:49 PM CST
Civil Twilight 6:44 AM CST 6:18 PM CST
Nautical Twilight 6:11 AM CST 6:51 PM CST
Astronomical Twilight 5:38 AM CST 7:24 PM CST
Moon 5:10 AM CST (2/16) 3:27 PM CST (2/16)
Length of Visible Light 11h 34m
Length of Day
10h 35m
Waning Crescent, 7% of the Moon is Illuminated
Feb 16
Waning Crescent
Feb 18
New
Feb 25
First Quarter
Mar 5
Full
Mar 13
Last Quarter

Hourly Weather History & Observations

Time (CST) Temp. Windchill Dew Point Humidity Pressure Visibility Wind Dir Wind Speed Gust Speed Precip Events Conditions
12:15 AM 10.4 °F -4.1 °F 5.0 °F 79% 30.26 in 10.0 mi South 11.5 mph - N/A   Overcast
12:35 AM 12.2 °F -2.5 °F 10.4 °F 92% 30.25 in 10.0 mi South 12.7 mph - N/A   Overcast
12:55 AM 12.2 °F -2.5 °F 5.0 °F 73% 30.24 in 10.0 mi South 12.7 mph - N/A   Overcast
1:15 AM 12.2 °F -3.1 °F 8.6 °F 85% 30.23 in 10.0 mi South 13.8 mph - N/A   Overcast
1:35 AM 12.2 °F -2.5 °F 10.4 °F 92% 30.23 in 10.0 mi South 12.7 mph - N/A   Overcast
1:55 AM 12.2 °F -2.5 °F - N/A% 30.22 in 10.0 mi South 12.7 mph - N/A   Overcast
2:15 AM 12.2 °F -3.1 °F 8.6 °F 85% 30.21 in 10.0 mi South 13.8 mph - N/A   Overcast
2:35 AM 12.2 °F -1.8 °F 8.6 °F 85% 30.20 in 10.0 mi South 11.5 mph - N/A   Overcast
2:55 AM 12.2 °F -1.8 °F 8.6 °F 85% 30.20 in 10.0 mi South 11.5 mph - N/A   Overcast
3:15 AM 12.2 °F -1.8 °F 8.6 °F 85% 30.19 in 10.0 mi South 11.5 mph - N/A   Overcast
3:35 AM 12.2 °F -1.8 °F 10.4 °F 92% 30.19 in 10.0 mi South 11.5 mph - N/A   Overcast
3:55 AM 12.2 °F -2.5 °F 10.4 °F 92% 30.18 in 10.0 mi South 12.7 mph - N/A   Overcast
4:15 AM 12.2 °F -0.2 °F 8.6 °F 85% 30.17 in 10.0 mi South 9.2 mph - N/A   Overcast
4:35 AM 12.2 °F 0.7 °F 8.6 °F 85% 30.17 in 10.0 mi SSW 8.1 mph - N/A   Overcast
4:55 AM 12.2 °F 0.7 °F 3.2 °F 67% 30.17 in 10.0 mi SSW 8.1 mph - N/A   Overcast
5:15 AM 12.2 °F -0.2 °F 8.6 °F 85% 30.17 in 10.0 mi SSW 9.2 mph - N/A   Overcast
5:35 AM 12.2 °F -0.2 °F 10.4 °F 92% 30.17 in 10.0 mi SSW 9.2 mph - N/A   Overcast
5:55 AM 12.2 °F -3.1 °F 12.2 °F 100% 30.17 in 10.0 mi South 13.8 mph - N/A   Overcast
6:15 AM 12.2 °F -2.5 °F -2.2 °F 53% 30.16 in 10.0 mi South 12.7 mph - N/A   Overcast
6:35 AM 12.2 °F -2.5 °F 1.4 °F 62% 30.16 in 10.0 mi SSW 12.7 mph - N/A   Overcast
6:55 AM 12.2 °F -2.5 °F - N/A% 30.15 in 10.0 mi SSW 12.7 mph - N/A   Overcast
7:15 AM 14.0 °F 0.5 °F 6.8 °F 73% 30.15 in 10.0 mi South 11.5 mph - N/A   Overcast
7:35 AM 14.0 °F 0.5 °F 5.0 °F 67% 30.14 in 10.0 mi SSW 11.5 mph - N/A   Overcast
7:55 AM 14.0 °F -0.2 °F 8.6 °F 79% 30.14 in 10.0 mi SSW 12.7 mph - N/A   Overcast
8:15 AM 14.0 °F 0.5 °F -7.6 °F 38% 30.14 in 9.0 mi SSW 11.5 mph - N/A   Overcast
8:35 AM 14.0 °F 1.2 °F -7.6 °F 38% 30.14 in 6.0 mi SW 10.4 mph - N/A   Haze
8:55 AM 15.8 °F 4.2 °F -0.4 °F 49% 30.14 in 8.0 mi SW 9.2 mph - N/A   Overcast
9:15 AM 15.8 °F 2.7 °F 3.2 °F 58% 30.13 in 8.0 mi SSW 11.5 mph - N/A Snow Light Snow
9:35 AM 15.8 °F 3.4 °F -0.4 °F 49% 30.13 in 10.0 mi SW 10.4 mph - N/A   Overcast
9:55 AM 17.6 °F 6.4 °F 12.2 °F 79% 30.12 in 10.0 mi SW 9.2 mph - N/A   Overcast
10:15 AM 17.6 °F 5.7 °F 15.8 °F 93% 30.12 in 10.0 mi SW 10.4 mph - N/A   Overcast
10:35 AM 19.4 °F 7.9 °F 3.2 °F 49% 30.11 in 10.0 mi SW 10.4 mph - N/A   Overcast
10:55 AM 19.4 °F 8.6 °F - N/A% 30.11 in 10.0 mi WSW 9.2 mph - N/A   Overcast
11:15 AM 21.2 °F 11.7 °F - N/A% 30.10 in 10.0 mi WSW 8.1 mph - N/A   Overcast
11:35 AM 21.2 °F 10.9 °F - N/A% 30.10 in 10.0 mi West 9.2 mph - N/A   Overcast
11:55 AM 21.2 °F 10.9 °F 6.8 °F 54% 30.09 in 10.0 mi West 9.2 mph - N/A   Overcast
12:15 PM 23.0 °F 12.4 °F - N/A% 30.08 in 10.0 mi WNW 10.4 mph - N/A   Overcast
12:35 PM 23.0 °F 13.1 °F 6.8 °F 50% 30.07 in 10.0 mi West 9.2 mph - N/A   Overcast
12:55 PM 24.8 °F 16.9 °F - N/A% 30.06 in 10.0 mi West 6.9 mph - N/A   Overcast
1:15 PM 24.8 °F 14.6 °F - N/A% 30.05 in 10.0 mi West 10.4 mph - N/A   Overcast
1:35 PM 24.8 °F 14.6 °F - N/A% 30.04 in 10.0 mi WNW 10.4 mph - N/A   Overcast
1:55 PM 24.8 °F 14.6 °F - N/A% 30.03 in 10.0 mi WNW 10.4 mph - N/A   Overcast
2:15 PM 26.6 °F 15.7 °F - N/A% 30.03 in - NW 12.7 mph - N/A   Overcast
2:35 PM 24.8 °F 13.4 °F - N/A% 30.02 in 10.0 mi NW 12.7 mph - N/A   Overcast
2:55 PM 24.8 °F 13.4 °F - N/A% 30.02 in 10.0 mi NW 12.7 mph 18.4 mph N/A   Overcast
3:15 PM 24.8 °F 13.4 °F - N/A% 30.02 in 10.0 mi NW 12.7 mph 18.4 mph N/A   Overcast
3:35 PM 24.8 °F 14.0 °F - N/A% 30.02 in 10.0 mi NW 11.5 mph - N/A   Overcast
3:55 PM 24.8 °F 12.9 °F - N/A% 30.02 in 10.0 mi NW 13.8 mph - N/A   Overcast
4:15 PM 24.8 °F 14.6 °F - N/A% 30.02 in 10.0 mi NW 10.4 mph 18.4 mph N/A   Overcast
4:35 PM 24.8 °F 13.4 °F - N/A% 30.02 in 10.0 mi NNW 12.7 mph - N/A   Overcast
4:55 PM 24.8 °F 14.0 °F - N/A% 30.02 in 10.0 mi NNW 11.5 mph - N/A   Overcast
5:15 PM 23.0 °F 10.6 °F - N/A% 30.02 in 9.0 mi North 13.8 mph - N/A   Overcast
5:35 PM 23.0 °F 11.1 °F - N/A% 30.03 in 10.0 mi North 12.7 mph 18.4 mph N/A   Overcast
5:55 PM 21.2 °F 7.3 °F - N/A% 30.04 in 10.0 mi NNW 16.1 mph 21.9 mph N/A   Overcast
6:15 PM 21.2 °F 7.3 °F - N/A% 30.04 in 10.0 mi NNW 16.1 mph 24.2 mph N/A   Overcast
6:35 PM 19.4 °F 6.6 °F - N/A% 30.05 in 10.0 mi NNW 12.7 mph 24.2 mph N/A   Overcast
6:55 PM 17.6 °F 5.0 °F - N/A% 30.05 in 10.0 mi North 11.5 mph - N/A   Mostly Cloudy
7:15 PM 17.6 °F 3.2 °F - N/A% 30.05 in 10.0 mi NNW 15.0 mph 20.7 mph N/A   Partly Cloudy
7:35 PM 17.6 °F 5.0 °F - N/A% 30.05 in 10.0 mi NNW 11.5 mph 19.6 mph N/A   Partly Cloudy
7:55 PM 17.6 °F 3.2 °F - N/A% 30.06 in 10.0 mi North 15.0 mph 23.0 mph N/A   Partly Cloudy
8:15 PM 15.8 °F 0.9 °F - N/A% 30.06 in 10.0 mi NNW 15.0 mph 25.3 mph N/A   Scattered Clouds
8:35 PM 15.8 °F 1.4 °F - N/A% 30.06 in 10.0 mi North 13.8 mph - N/A   Mostly Cloudy
8:55 PM 14.0 °F -1.4 °F - N/A% 30.06 in 10.0 mi NNW 15.0 mph - N/A   Partly Cloudy
9:15 PM 14.0 °F -0.2 °F - N/A% 30.07 in 10.0 mi NNW 12.7 mph - N/A   Partly Cloudy
9:35 PM 14.0 °F -0.2 °F - N/A% 30.07 in 10.0 mi NNW 12.7 mph 20.7 mph N/A   Mostly Cloudy
10:15 PM 14.0 °F -0.8 °F - N/A% 30.07 in 10.0 mi NNW 13.8 mph - N/A   Mostly Cloudy
10:35 PM 14.0 °F -1.4 °F - N/A% 30.07 in 10.0 mi NNW 15.0 mph - N/A   Overcast
10:55 PM 14.0 °F -1.4 °F - N/A% 30.07 in 10.0 mi NNW 15.0 mph 20.7 mph N/A   Overcast
11:15 PM 14.0 °F -0.2 °F - N/A% 30.07 in 10.0 mi NNW 12.7 mph 24.2 mph N/A   Overcast
11:35 PM 12.2 °F -3.1 °F - N/A% 30.07 in 10.0 mi NNW 13.8 mph - N/A   Overcast
11:55 PM 12.2 °F -1.8 °F - N/A% 30.07 in 10.0 mi NNW 11.5 mph 20.7 mph N/A   Scattered Clouds